TimeEST,TemperatureF,Dew PointF,Humidity,Sea Level PressureIn,VisibilityMPH,Wind Direction,Wind SpeedMPH,Gust SpeedMPH,PrecipitationIn,Events,Conditions,WindDirDegrees,DateUTC
12:51 AM,34.0,33.1,96,29.94,2.0,WSW,5.8,-,N/A,,Overcast,250,2012-12-25 05:51:00
1:51 AM,34.0,33.1,96,29.96,2.0,West,5.8,-,N/A,,Overcast,260,2012-12-25 06:51:00
2:42 AM,33.8,32.0,93,29.93,3.0,West,6.9,-,N/A,,Overcast,270,2012-12-25 07:42:00
2:51 AM,34.0,32.0,92,29.99,4.0,West,9.2,-,N/A,,Overcast,270,2012-12-25 07:51:00
3:51 AM,34.0,32.0,92,30.01,4.0,West,6.9,-,N/A,,Overcast,270,2012-12-25 08:51:00
4:51 AM,34.0,30.9,89,30.04,4.0,WNW,9.2,-,N/A,,Overcast,300,2012-12-25 09:51:00
5:51 AM,33.1,30.9,92,30.07,3.0,WNW,9.2,-,0.00,,Light Drizzle,290,2012-12-25 10:51:00
6:07 AM,33.8,32.0,93,30.02,1.5,West,8.1,-,0.00,,Light Drizzle,280,2012-12-25 11:07:00
6:51 AM,33.1,30.9,92,30.11,1.5,NW,6.9,-,0.00,,Light Drizzle,320,2012-12-25 11:51:00
7:12 AM,33.8,30.2,87,30.06,3.0,NW,8.1,-,0.00,,Light Drizzle,310,2012-12-25 12:12:00
7:51 AM,33.1,30.9,92,30.13,3.0,NNW,5.8,-,0.00,,Light Drizzle,330,2012-12-25 12:51:00
8:02 AM,33.8,30.2,87,30.07,3.0,NNW,9.2,-,0.00,,Light Drizzle,340,2012-12-25 13:02:00
8:51 AM,33.1,30.0,89,30.14,4.0,North,8.1,-,0.00,,Light Drizzle,360,2012-12-25 13:51:00
9:41 AM,33.8,28.4,81,30.11,7.0,North,10.4,-,0.00,,Overcast,350,2012-12-25 14:41:00
9:51 AM,33.1,28.9,85,30.17,7.0,North,8.1,-,0.00,,Overcast,360,2012-12-25 14:51:00
10:51 AM,33.1,28.0,82,30.19,8.0,North,10.4,-,N/A,,Overcast,10,2012-12-25 15:51:00
11:38 AM,33.8,26.6,75,30.16,10.0,North,8.1,-,N/A,,Overcast,360,2012-12-25 16:38:00
11:51 AM,33.1,25.0,72,30.21,10.0,NNW,8.1,-,N/A,,Overcast,340,2012-12-25 16:51:00
12:12 PM,33.8,26.6,75,30.14,10.0,North,9.2,-,N/A,,Overcast,10,2012-12-25 17:12:00
12:51 PM,33.1,25.0,72,30.20,10.0,North,8.1,-,N/A,,Overcast,350,2012-12-25 17:51:00
1:51 PM,34.0,25.0,70,30.18,10.0,North,8.1,-,N/A,,Mostly Cloudy,360,2012-12-25 18:51:00
2:51 PM,34.0,25.0,70,30.19,10.0,NE,6.9,-,N/A,,Partly Cloudy,40,2012-12-25 19:51:00
3:26 PM,33.8,24.8,70,30.15,10.0,North,4.6,-,N/A,,Overcast,10,2012-12-25 20:26:00
3:51 PM,34.0,25.0,70,30.23,10.0,WNW,5.8,-,N/A,,Overcast,300,2012-12-25 20:51:00
4:27 PM,33.8,24.8,70,30.18,10.0,North,5.8,-,N/A,,Overcast,350,2012-12-25 21:27:00
4:51 PM,33.1,25.0,72,30.24,10.0,North,6.9,-,N/A,,Overcast,350,2012-12-25 21:51:00
5:51 PM,33.1,25.0,72,30.23,10.0,NNE,5.8,-,N/A,,Overcast,20,2012-12-25 22:51:00
6:51 PM,33.1,26.1,75,30.22,10.0,North,10.4,-,N/A,,Overcast,10,2012-12-25 23:51:00
6:58 PM,33.8,26.6,75,30.16,10.0,NNE,9.2,-,N/A,,Overcast,20,2012-12-25 23:58:00
7:51 PM,33.1,26.1,75,30.23,10.0,NNE,6.9,-,N/A,,Overcast,30,2012-12-26 00:51:00
8:51 PM,33.1,25.0,72,30.23,10.0,ENE,4.6,-,N/A,,Overcast,70,2012-12-26 01:51:00
9:51 PM,33.1,26.1,75,30.23,10.0,ENE,5.8,-,N/A,,Overcast,60,2012-12-26 02:51:00
10:51 PM,33.1,27.0,78,30.23,10.0,ENE,8.1,-,N/A,,Overcast,60,2012-12-26 03:51:00
11:51 PM,32.0,26.1,79,30.22,10.0,ENE,8.1,-,N/A,,Overcast,70,2012-12-26 04:51:00